SL-16 DEB

Satellite information

Favourite Embed

Satellite Type and Status

DEBRISIN ORBIT

Key statistics

Satellite SL-16 DEB at a glance.

Uptime

11883

Days in orbit

Revolutions

≈ 13.7

Per day

Orbit

LEO

Low Earth Orbit

Inclination

71.1

Latest

Satellite identification and parameters

Extended collection of information and parameters for SL-16 DEB.

Object identification

Identified? True

Debris? True

Object name: SL-16 DEB

International designator: 1992-093H

Object number (NORAD): 22293

Object ID (CCSDS): 22293

Country: COMMONWEALTH OF INDEPENDENT STATES (CIS)

Current information (Y/N): Y

RCS size: SMALL

Orbital parameters

Period: 104.757 minutes

Inclination: 71.0556 deg

SMA: 7361.225 km

Apoapsis: 1127.413 km

Periapsis: 838.766 km

RAAN: 44.8935 deg

Eccentricy: 0.0196059

Argument of periapsis: 25.1246 deg

Mean anomaly: 335.9237 deg

Mean motion: 13.74604085 rev/day

Mean motion (dot): 0.00000037 rev/day2

B* drag term: 0.000072918 1/REarth

Two-line elements (TLE)

Creation date: July 8, 2025, 2:27 a.m.

Reference frame: TEME

Reference center: EARTH

Epoch: July 7, 2025, 9:43 p.m. UTC

TLE line 0: 0 SL-16 DEB

TLE line 1: 1 22293U 92093H 25188.90546180 .00000037 00000-0 72918-4 0 9999

TLE line 2: 2 22293 71.0556 44.8935 0196059 25.1246 335.9237 13.74604085625291

Live tracking on map

Real-time ground track for satellite SL-16 DEB.

In-orbit conjunctions

A list of the most updated potential collisions computed for object SL-16 DEB.

Target Orbit TCA Probability of collision Miss distance Type
FENGYUN 1C DEB SSO 2025-03-10 19:39:32 0.0003787732 172.0 (m) DEBRIS
FENGYUN 1C DEB SSO 2024-11-14 00:43:51 0.0001154136 538.0 (m) DEBRIS

Associated space launch

Second generation ELING satellite

SL-16 DEB was lifted into orbit during the mission ‘Zenit-2 | Tselina-2 12’, on board a Zenit-2 space rocket.

The launch took place on Dec. 25, 1992, 5:56 a.m. from 45/1.

For more information about the launch, click the button.

Launch to space Zenit-2 | Tselina-2 12
Zenit-2 | Tselina-2 12

Agency: N/A

Status: Launch Successful

Launch date: Dec. 25, 1992, 5:56 a.m. UTC

Rocket: Zenit-2

Launch pad: 45/1

Location: Baikonur Cosmodrome, Republic of Kazakhstan

...

Latest news about this satellite

There are no fresh news available about this satellite. Check back as we update our databases every day.


Newsletter sign-up

Weekly statistics, charts and insights to help you stay on top of the space industry.